This demonstration page uses our WeatherBlox Daily Observations layout. Learn more.

Left ArrowRight Arrow

Hourly Observations for May 24, 2022

Temp ( °F °C ) Dew Point ( °F °C ) Humidity (%) Winds ( mph kmh ) Pressure ( in mb ) Visibility ( mi km ) Precip ( " mm )
12:56 am 00:56 undefined 56 13.3 34 1.3 44 44 ENE 3 6 30.17 1022 10 16 0.00 0.00
1:56 am 01:56 undefined 56 13.2 34 1.2 44 44 ENE 3 6 30.15 1021 10 16 0.00 0.00
2:56 am 02:56 undefined 56 13.1 33 0.8 43 43 Calm 30.13 1020 10 16 0.00 0.00
3:56 am 03:56 Cloudy 55 13 33 0.7 43 43 E 5 7 30.14 1021 10 16 0.00 0.00
4:56 am 04:56 Cloudy 55 12.5 34 1.2 46 46 E 5 7 30.13 1020 10 16 0.00 0.00
5:56 am 05:56 Cloudy 54 12.4 35 1.7 48 48 ENE 7 11 30.12 1020 10 16 0.00 0.00
6:56 am 06:56 Cloudy 54 12.4 38 3.1 53 53 ENE 7 11 30.12 1020 10 16 0.00 0.00
7:56 am 07:56 Cloudy 56 13.5 39 3.8 52 52 E 6 9 30.11 1020 10 16 0.00 0.00
8:56 am 08:56 Cloudy 59 14.8 40 4.5 50 50 E 9 15 30.11 1020 10 16 0.00 0.00
9:56 am 09:56 Cloudy 60 15.6 42 5.5 51 51 E 9 15 30.10 1019 10 16 0.00 0.00
10:22 am 10:22 Cloudy with Light Rain 59 15 43 6 55 55 E 9 15 30.09 1019 10 16 0.00 0.00
10:56 am 10:56 Cloudy with Light Showers 59 14.9 44 6.5 57 57 ESE 9 15 30.10 1019 10 16 0.00 0.00
11:56 am 11:56 Cloudy with Light Rain 54 12.4 47 8.5 77 77 E 7 11 30.10 1019 6 10 0.03 0.76
12:56 pm 12:56 Cloudy with Light Rain 54 12.1 50 10 87 87 ENE 10 17 30.09 1019 6 10 0.06 1.52
1:56 pm 13:56 Cloudy with Light Rain 53 11.9 50 9.8 87 87 ENE 9 15 30.06 1018 5 8 0.04 1.02
2:56 pm 14:56 Cloudy with Light Rain 53 11.8 49 9.5 86 86 ENE 10 17 30.04 1017 5 8 0.05 1.27
3:56 pm 15:56 Cloudy with Mist and Fog 52 11.3 49 9.2 87 87 ENE 16 26 30.01 1016 6 10 0.08 2.03
4:56 pm 16:56 Cloudy with Light Rain 53 11.4 49 9.3 87 87 ENE 12 19 30.01 1016 7 11 0.06 1.52
5:26 pm 17:26 Mostly Cloudy with Rain 52 11 48 9 88 88 ENE 13 20 30.00 1016 4 6 0.10 2.54
5:56 pm 17:56 Cloudy with Rain 52 11.1 49 9.2 88 88 NE 13 20 30.00 1016 5 8 0.17 4.32
6:56 pm 18:56 Mostly Cloudy with Rain 51 10.7 49 9.3 91 91 NE 9 15 29.98 1015 4 6 0.26 6.60
7:56 pm 19:56 Cloudy with Light Rain 51 10.4 48 8.8 90 90 NE 14 22 29.96 1015 4 6 0.12 3.05
8:56 pm 20:56 Cloudy with Rain 50 10 47 8.6 91 91 NE 14 22 29.96 1015 4 6 0.05 1.27
9:56 pm 21:56 Cloudy with Light Rain 50 10.1 47 8.5 90 90 NE 12 19 29.94 1014 7 11 0.01 0.25
10:56 pm 22:56 Cloudy 51 10.6 48 9 90 90 NE 10 17 29.93 1014 9 14 0.00 0.00
11:56 pm 23:56 Cloudy with Light Showers 52 11 49 9.6 91 91 NE 12 19 29.91 1013 6 10 0.00 0.00

Powered by AerisWeather